Home   Weather   Bregenz   Past weeks
Flag for Austria

Past Weather in Bregenz, Vorarlberg, Austria — Yesterday and Last 2 Weeks

Now
45 °F

Quite cool.


Feels Like: 45 °F
Forecast: 63 / 33 °F
Wind: 2 mph from East

Location: Bregenz

Current Time: Apr 5, 2020 at 12:09:58 am

Latest Report: Apr 4, 2020 at 11:00 pm


Visibility: N/A

Pressure: 30.21 "Hg

Humidity: 67%

Dew Point: 35 °F

Location of BregenzLocation

Past Weather in Bregenz — Graph

°F

Bregenz Temperature Yesterday

Maximum temperature yesterday: 58 °F (at 6:00 pm)
Minimum temperature yesterday: 33 °F (at 7:00 am)
Average temperature yesterday: 46 °F

High & Low Weather Summary for the Past Weeks

 TemperatureHumidityPressure
High58 °F (Apr 4, 6:00 pm)96% (Mar 21, 6:00 am)30.43 "Hg (Mar 21, 6:00 am)
Low26 °F (Mar 24, 7:00 am)24% (Apr 1, 6:00 pm)29.82 "Hg (Apr 2, 6:00 pm)
Average40 °F63%30.14 "Hg
* Reported Mar 20 9:00 pm — Apr 4 10:00 pm, Bregenz. Weather by CustomWeather, © 2020

Note: Actual official high and low records may vary slightly from our data, if they occured in-between our weather recording intervals... More about our weather records

Bregenz Weather History for the Previous 24 Hours

Scroll right to see more
 ConditionsComfort  
Time TempWeatherWind HumidityBarometerVisibility
10:00 pm
Sat, Apr 4
47 °FCool.No wind61%30.20 "HgN/A
8:00 pm52 °FCool.1 mph55%30.16 "HgN/A
7:00 pm57 °FRefreshingly cool.1 mph35%30.13 "HgN/A
6:00 pm58 °FRefreshingly cool.2 mph35%30.13 "HgN/A
5:00 pm58 °FRefreshingly cool.2 mph40%30.14 "HgN/A
4:00 pm56 °FRefreshingly cool.2 mph45%30.16 "HgN/A
2:00 pm51 °FCool.2 mph49%30.19 "HgN/A
12:00 pm49 °FPassing clouds.1 mph54%30.21 "Hg1 mi
11:00 am46 °FCool.1 mph57%30.22 "HgN/A
9:00 am38 °FChilly.1 mph78%30.23 "HgN/A
7:00 am33 °FChilly.1 mph84%30.21 "HgN/A
6:00 am34 °FChilly.1 mph83%30.20 "HgN/A
5:00 am35 °FChilly.1 mph81%30.20 "HgN/A
3:00 am38 °FChilly.1 mph76%30.19 "HgN/A
2:00 am39 °FChilly.1 mph72%30.18 "HgN/A
1:00 am42 °FQuite cool.3 mph65%30.16 "HgN/A
12:00 am44 °FQuite cool.2 mph59%30.14 "HgN/A
Weather by CustomWeather, © 2020

See weather overview

Advertising